Home > Time Zones > World Clock > Weather > Serbia > Niš > Past weeks

Flag for Serbia Weather past 2 weeks in Niš, Serbia

Now
61 °F

Light rain. Partly sunny.


Feels Like: 61 °F
Forecast: 52 / 64 °F
Wind: 5 mph from North

Location: Nis Airport


UV Index: 0 (Low)

Visibility: N/A


Pressure: 29.80 "Hg

Humidity: 100%

Dew point: 61 °F

Location of NišLocation

Historic Weather in Niš

°F

Niš temperature yesterday

Maximum temperature yesterday: 68 °F (at 3:00 PM)
Minimum temperature yesterday: 50 °F (at 3:30 AM)
Average temperature yesterday: 60 °F

Past Weeks' High & Low Weather Summary

 TemperatureHumidityPressure
High77 °F (Apr 22, 2:30 PM)100% (Apr 11, 6:30 PM)30.07 "Hg (Apr 11, 6:30 PM)
Low39 °F (Apr 11, 6:30 AM)35% (Apr 14, 5:30 PM)29.53 "Hg (Apr 19, 1:30 AM)
Average51 °F81%29.90 "Hg
* Reported Apr 9 6:00 PM — Apr 24 6:00 PM, Niš, Weather by CustomWeather, © 2014

Note: Actual official high and low records may vary slightly from our data, if they occured in-between our weather recording intervals... More about our weather records

Advertising

Historic Weather Conditions — Data for Previous 24 hours

 ConditionsComfort  
Time TempWeatherWind HumidityBarometerVisibility
6:00 PM
Apr 24
63 °FLight rain. Partly sunny.2 mph88%29.80 "HgN/A
5:30 PM63 °FLight rain. Partly sunny.3 mph83%29.80 "HgN/A
5:00 PM63 °FThunderstorms. Partly sunny.2 mph83%29.80 "HgN/A
4:30 PM64 °FThunderstorms. Partly sunny.5 mph78%29.77 "HgN/A
4:00 PM66 °FThunderstorms. Broken clouds.9 mph73%29.77 "HgN/A
3:30 PM68 °FThunderstorms. Partly sunny.10 mph64%29.77 "HgN/A
3:00 PM70 °FPartly sunny.9 mph60%29.77 "HgN/A
2:30 PM73 °FScattered clouds.12 mph57%29.74 "HgN/A
2:00 PM72 °FPassing clouds.9 mph61%29.77 "HgN/A
1:30 PM70 °FScattered clouds.8 mph60%29.77 "HgN/A
1:00 PM72 °FScattered clouds.9 mph57%29.80 "HgN/A
12:30 PM72 °FPassing clouds.9 mph61%29.80 "HgN/A
12:00 PM68 °FScattered clouds.8 mph69%29.80 "HgN/A
11:30 AM68 °FBroken clouds.10 mph69%29.83 "HgN/A
11:00 AM68 °FScattered clouds.1 mph73%29.83 "HgN/A
10:30 AM66 °FScattered clouds.2 mph78%29.83 "HgN/A
10:00 AM64 °FLight rain. Scattered clouds.3 mph83%29.83 "HgN/A
9:30 AM63 °FScattered clouds.1 mph100%29.83 "Hg5 mi
9:00 AM61 °FScattered clouds.1 mph100%29.83 "Hg5 mi
8:30 AM61 °FFog.2 mph100%29.83 "Hg2 mi
8:00 AM59 °FFog.No wind100%29.83 "Hg2 mi
7:30 AM59 °FSleet. Fog.1 mph100%29.83 "Hg1 mi
7:00 AM59 °FSleet. Fog.1 mph100%29.83 "Hg1 mi
6:30 AM59 °FFog.2 mph100%29.83 "Hg1 mi
6:00 AM59 °FFog.1 mph100%29.83 "Hg1 mi
5:30 AM59 °FFog.1 mph100%29.83 "Hg1 mi
5:00 AM59 °FFog.1 mph100%29.83 "Hg1 mi
4:30 AM59 °FFog.1 mph100%29.83 "Hg1 mi
4:00 AM59 °FLight rain. Fog.1 mph100%29.83 "Hg1 mi
3:30 AM59 °FLight rain. Fog.1 mph100%29.83 "Hg1 mi
3:00 AM59 °FLight rain. Fog.2 mph100%29.86 "Hg1 mi
2:30 AM57 °FFog.2 mph100%29.86 "Hg1 mi
2:00 AM59 °FSleet. Fog.No wind100%29.86 "HgN/A
1:30 AM59 °FSleet. Fog.1 mph100%29.86 "HgN/A
1:00 AM59 °FSleet. Fog.1 mph100%29.86 "HgN/A
12:30 AM59 °FPassing clouds.1 mph100%29.89 "HgN/A
12:00 AM59 °FPassing clouds.1 mph100%29.89 "HgN/A
11:30 PM
Apr 23
59 °FPassing clouds.6 mph100%29.89 "HgN/A
11:00 PM61 °FPassing clouds.2 mph100%29.92 "HgN/A
10:30 PM61 °FPassing clouds.3 mph100%29.92 "HgN/A
10:00 PM61 °FThunderstorms. Partly cloudy.1 mph100%29.92 "Hg4 mi
9:30 PM61 °FThunderstorms. Partly cloudy.3 mph100%29.92 "HgN/A
9:00 PM63 °FLight rain. Passing clouds.1 mph94%29.92 "HgN/A
8:30 PM64 °FPassing clouds.1 mph83%29.92 "HgN/A
8:00 PM64 °FPartly sunny.5 mph88%29.92 "HgN/A
7:30 PM64 °FScattered clouds.3 mph88%29.92 "HgN/A
7:00 PM64 °FThunderstorms. Scattered clouds.8 mph88%29.92 "HgN/A
Weather by CustomWeather, © 2014

See weather overview